Other Surface Observations
Issued by NWS

Home | Current Version | Previous Version | Text Only | Print | Product List | Glossary On
Versions: 1 2 3 4 5 6 7 8 9 10 11 12 13 14 15 16 17 18 19 20 21 22 23 24 25 26 27 28 29 30 31 32 33 34 35 36 37 38 39 40 41 42 43 44 45 46 47 48 49 50
069
SXUS52 KTAE 272006
OSOTAE
OSOTAE
North Florida/South Alabama/Southwest Georgia Weather Roundup
National Weather Service Tallahassee Florida
400 PM EDT SAT MAY 27 2017

Note: "fair" indicates few or no clouds below 12,000 feet with no
significant weather and/or obstructions to visibility.

!FLZ017-115-028-034-025-272100
...North Florida...

CITY           SKY/WX    TMP DP  RH WIND       PRES   REMARKS
TALLAHASSEE    MOSUNNY   91  61  36 W12       30.04F HX  91
APALACHICOLA   LGT RAIN  88  70  55 NW17G23   30.06F HX  93
PERRY          SUNNY     85  67  54 SW7       30.06F
CROSS CITY     SUNNY     86  61  42 W13       30.06F
JACKSONVILLE   SUNNY     91  58  32 SW7       30.00F HX  90
$$

!FLZ112-006-005-002-011-272100
...Florida Panhandle...

CITY           SKY/WX    TMP DP  RH WIND       PRES   REMARKS
MARIANNA       SUNNY     88  67  49 W9        30.04F HX  91
BONIFAY        NOT AVBL
PANAMA CITY NW FAIR      86  71  60 W14       30.03F HX  91
TYNDALL AFB    SUNNY     83  71  66 W8        30.06F
TYND DRONE APT FAIR      81  73  76 SW6       30.06F
DE FUNIAK SPR  MOCLDY    87  66  49 SW6       30.05F
EGLIN AFB      MOSUNNY   84  73  68 SW12G17   30.05F HX  90
DESTIN         SUNNY     85  79  82 VRB6      30.05F HX  98
HURLBURT       SUNNY     84  71  66 S10       30.05F
CRESTVIEW      MOSUNNY   89  67  47 VRB3      30.06F HX  92
PENSACOLA      MOSUNNY   87  74  64 S13       30.05F HX  95
$$

!ALZ063-066-272100
...South Alabama...

CITY           SKY/WX    TMP DP  RH WIND       PRES   REMARKS
DOTHAN         MOSUNNY   85  67  54 W9G17     30.08F
OZARK CAIRNS   MOSUNNY   87  68  52 SW12      30.05F HX  90
FT RUCKER HELI MOSUNNY   87  67  50 W6        30.05F
RUCKER HELI 3  FAIR      87  66  49 W8        30.05F
RUCKER HELI 2  FAIR      86  68  54 W9        30.04F
FLORALA APT    MOSUNNY   87  66  49 VRB3      30.06F
ANDALUSIA      MOSUNNY   91  67  44 MISG      30.04F HX  94
TROY           PTSUNNY   84  70  62 SW9       30.05F
EUFALA         FAIR      88  67  49 SW7       30.02F HX  91
MOBILE         PTSUNNY   87  72  60 S12       30.04F HX  93
$$

!GAZ120>161-272100
...Southwest and South Central Georgia...

CITY           SKY/WX    TMP DP  RH WIND       PRES   REMARKS
THOMASVILLE    NOT AVBL
BAINBRIDGE     SUNNY     88  64  45 W8        30.05F
MOODY AFB      MOSUNNY   91  59  33 W6        30.02F HX  90
VALDOSTA       SUNNY     89  60  37 W6        30.03F
MOULTRIE       SUNNY     90  54  29 W9        30.05F
BLAKELY        SUNNY     88  64  45 NW8       30.05F
ALBANY         SUNNY     88  64  44 W7        30.05F
TIFTON         FAIR      88  56  34 W10G16    30.03F
FITZGERALD     CLOUDY    90  61  37 NW9       30.05F
CORDELE        FAIR      92  59  32 W13       30.03F HX  91
AMERICUS       FAIR      86  54  32 W10       30.04F
HOMERVILLE     FAIR     N/A N/A N/A NW6       30.03F
$$

!GMZ750-755-770-775-272100
...Coastal and Buoy Obs...

STATION/POSITION TIME  TEMP    WIND        PRES    VSBY  WAVE
                       AIR SEA DIR/SP/G                  HT/PER
                 (UTC) (F)     (DEG/KT/KT) (MB)    (MI)  (FT/S)
KEATON BEACH     2000   77     240/  9/ 10 1017.9F
CEDAR KEY        1900   79     300/  6/  9 1019.3F
C TOWER          2000   77     280/ 10/ 11 1018.7F
APALACHICOLA BUO 1950   77 80  320/  6/  8 1018.6F         1/ 8
PANAMA CITY BUOY 1950   80 85  270/  2/  4 1018.5F         1/ 8
MOBILE BUOY      1950   80 80  180/  6/  8 1018.5F         2/ 4
ORANGE BCH AL BU 1950   78 80  180/  6/  6 1018.0F         2/ 5
$$




USA.gov is the U.S. government's official web portal to all federal, state and local government web resources and services.